Phoenix Deer Valley, AZ

2:01 PM MST on December 09, 2019 (GMT -0700)
Phoenix-Deer Valley Municipal

Weather History for KDVT - August, 2019

Change the Weather History Date:

Wednesday, August 14, 2019

  Actual Average Record
Temperature  
Mean Temperature 99 °F -  
Max Temperature 109 °F 99 °F 109 °F (2012)
Min Temperature 89 °F 79 °F 71 °F (2001)
Cooling Degree Days 34    
Growing Degree Days 49 (Base 50)    
Moisture  
Dew Point 40 °F    
Average Humidity 13    
Maximum Humidity 20    
Minimum Humidity 8    
Precipitation  
Precipitation 0.00 in - - ()
Sea Level Pressure  
Sea Level Pressure 29.85 in    
Wind  
Wind Speed 3 mph (SSW)    
Max Wind Speed 12 mph    
Max Gust Speed 16 mph    
Visibility 10 miles    
Events      
Averages and records for this station are not official NWS values.
T = Trace of Precipitation, MM = Missing Value Source: NWS Daily Summary

Daily Weather History Graph

Daily Weather History Graph

Search for Another Location

Airport or City:

Astronomy

Aug. 14, 2019 Rise Set
Actual Time 5:49 AM MST 7:15 PM MST
Civil Twilight 5:23 AM MST 7:42 PM MST
Nautical Twilight 4:51 AM MST 8:13 PM MST
Astronomical Twilight 4:18 AM MST 8:46 PM MST
Moon 7:08 PM MST (8/14) 4:55 AM MST (8/14)
Length of Visible Light 14h 19m
Length of Day
13h 26m
Full, 100% of the Moon is Illuminated
Aug 14
Full
Aug 15
Full
Aug 23
Last Quarter
Aug 30
New
Sep 5
First Quarter

Hourly Weather History & Observations

Time (MST) Temp. Dew Point Humidity Pressure Visibility Wind Dir Wind Speed Gust Speed Precip Events Conditions
12:53 AM - - N/A% 29.90 in - North - - N/A   Unknown
1:53 AM - - N/A% 29.89 in - North - - N/A   Unknown
2:53 AM - - N/A% 29.89 in - North - - N/A   Unknown
3:53 AM - - N/A% 29.89 in - North - - N/A   Unknown
4:53 AM - - N/A% 29.90 in - North - - N/A   Unknown
5:53 AM - - N/A% 29.92 in - North - - N/A   Unknown
6:53 AM - - N/A% 29.93 in - North - - N/A   Unknown
7:53 AM 89.1 °F 43.0 °F 20% 29.86 in 10.0 mi Calm Calm - N/A   Clear
8:53 AM 91.9 °F 45.0 °F 20% 29.87 in 10.0 mi Variable 3.5 mph - N/A   Clear
9:53 AM 96.1 °F 46.0 °F 18% 29.87 in 10.0 mi Variable 4.6 mph - N/A   Clear
10:53 AM 100.0 °F 46.0 °F 16% 29.87 in 10.0 mi North - - N/A   Clear
11:53 AM 102.9 °F 44.1 °F 14% 29.85 in 10.0 mi Calm Calm - N/A   Clear
12:53 PM 106.0 °F 39.9 °F 11% 29.91 in 10.0 mi North - - N/A   Clear
1:53 PM 108.0 °F 37.0 °F 9% 29.89 in 10.0 mi WSW 11.5 mph - N/A   Clear
2:53 PM 108.0 °F 37.9 °F 9% 29.87 in 10.0 mi South 8.1 mph 16.1 mph N/A   Clear
3:53 PM 108.0 °F 37.0 °F 9% 29.84 in 10.0 mi SSE 5.8 mph - N/A   Clear
4:53 PM 109.0 °F 36.0 °F 8% 29.82 in 10.0 mi North - - N/A   Clear
5:53 PM 109.0 °F 36.0 °F 8% 29.81 in 10.0 mi WSW 6.9 mph - N/A   Clear
6:53 PM 107.1 °F 36.0 °F 9% 29.82 in 10.0 mi SW 9.2 mph - N/A   Clear
7:53 PM 102.9 °F 36.0 °F 10% 29.75 in 10.0 mi South 4.6 mph - N/A   Clear
8:53 PM 100.9 °F 37.0 °F 11% 29.77 in 10.0 mi SSW 3.5 mph - N/A   Clear
9:53 PM 98.1 °F 39.0 °F 13% 29.78 in 10.0 mi Calm Calm - N/A   Clear
10:53 PM 95.0 °F 39.9 °F 15% 29.78 in 10.0 mi Calm Calm - N/A   Clear
11:53 PM 91.0 °F 39.9 °F 17% 29.79 in 10.0 mi Calm Calm - N/A   Clear